Wind_Speed
10 10 10 11 11 11 12 12 13 14 16 18 20 20 21 23 23 23 23 24 27 29 29 29 32 34 34 34 35 36 36 34 33 32 32 31 32 33 33 32 33 33 33 33
9 9 9 10 11 11 12 13 12 13 15 16 17 19 20 21 21 21 22 22 25 28 29 28 30 33 33 33 33 34 34 34 33 33 31 33 33 33 33 33 33 33 33 34
9 8 8 9 9 11 12 13 12 13 13 14 15 17 19 19 20 20 21 22 23 24 26 28 29 31 32 32 32 32 33 34 33 34 34 34 34 34 34 34 34 35 34 34
9 9 9 9 9 10 11 12 13 13 13 13 14 16 16 17 18 19 20 21 22 23 25 26 28 30 30 30 31 32 32 32 33 33 34 34 34 34 33 33 34 35 35 36
10 10 10 9 9 10 11 12 11 11 12 13 14 15 15 16 18 19 20 21 21 22 23 24 25 26 28 29 30 31 32 33 34 34 34 35 35 35 34 35 36 37 37 38
10 10 10 9 9 10 10 11 11 11 12 13 13 15 14 15 15 17 19 20 20 20 21 22 24 25 26 27 28 29 31 33 34 35 35 34 34 35 36 36 36 37 38 38
10 10 10 9 9 9 10 10 10 11 12 13 13 14 14 14 14 15 17 18 19 21 21 23 24 25 26 26 27 28 30 32 34 35 35 34 34 36 36 37 38 39 39 39
10 10 10 10 10 10 11 11 12 12 13 13 13 14 14 14 14 14 15 17 18 18 19 20 22 24 26 26 27 28 30 32 33 34 35 36 36 37 38 39 39 40 40 40
11 11 10 10 10 11 11 12 13 14 14 14 14 14 14 14 14 14 16 17 18 19 19 20 20 22 24 25 27 29 30 31 33 34 35 37 38 38 39 40 41 41 42 43
12 12 12 11 12 12 12 13 13 14 15 15 15 15 14 14 14 15 16 17 18 19 20 22 22 22 23 25 27 28 29 31 32 34 36 37 39 40 41 41 42 42 43 44
13 13 13 13 13 13 13 13 14 15 16 16 16 15 15 15 15 15 15 16 18 19 20 22 23 24 24 25 26 28 30 31 33 35 37 39 40 41 42 43 44 44 44 45
14 14 14 14 14 14 14 15 16 17 17 17 17 16 15 16 16 16 16 17 18 20 21 22 24 25 26 27 28 29 31 32 34 35 36 38 39 40 42 43 44 44 45 46
16 16 16 16 16 16 16 17 18 18 19 19 19 18 17 17 17 17 18 19 20 21 22 23 24 26 27 28 30 31 33 34 36 37 37 38 39 40 41 42 43 44 45 45
18 18 18 18 19 19 19 20 20 21 21 21 21 20 18 19 20 20 21 21 22 23 24 25 27 28 29 30 31 33 34 35 36 37 38 39 40 41 41 42 43 44 45 45
21 21 21 20 21 21 21 22 22 23 23 24 23 22 21 22 23 23 23 24 24 26 27 28 29 30 31 32 33 34 35 36 37 38 39 40 41 41 42 43 44 44 45 46
24 23 23 22 22 23 23 23 24 25 25 25 25 24 24 25 25 26 26 26 27 28 29 30 31 32 33 34 35 35 36 36 38 39 40 41 41 42 43 44 44 45 46 47
26 26 26 25 25 26 25 24 25 26 26 26 26 25 26 27 28 28 28 29 30 30 31 32 33 33 34 35 36 36 37 38 39 40 41 42 43 43 44 45 45 46 47 47
28 28 28 29 28 28 27 27 27 28 28 29 29 29 29 29 30 30 31 31 32 32 33 34 34 35 36 37 37 38 39 40 41 41 42 43 44 44 45 45 46 47 47 47
29 30 30 31 31 30 29 29 30 30 30 30 30 30 31 31 32 32 32 33 33 34 35 35 36 36 37 39 40 40 40 41 42 42 43 44 44 45 46 46 46 47 47 48
32 32 33 33 33 33 32 32 31 32 32 31 32 32 33 33 33 33 34 34 34 34 35 36 37 37 38 39 40 41 41 42 42 43 44 44 45 45 46 46 47 47 47 48
35 35 36 36 36 35 34 34 34 34 34 34 34 34 35 35 35 35 36 36 36 36 36 37 38 38 39 40 41 41 42 43 44 44 44 45 45 46 46 46 47 47 47 48
37 38 38 38 38 37 36 36 36 36 36 36 36 36 36 36 37 37 37 37 38 38 38 39 39 40 40 41 42 42 43 44 45 45 45 45 46 46 46 47 47 47 48 49
40 41 41 41 40 40 39 39 39 40 40 40 39 39 39 39 39 39 39 39 40 41 41 41 42 42 42 43 43 44 44 44 45 45 45 46 46 46 46 47 47 48 48 49
42 43 43 42 41 41 41 42 42 43 43 42 42 42 42 42 42 42 42 42 43 43 43 43 43 43 43 43 44 44 44 45 45 45 45 45 45 46 46 46 47 48 48 49
44 44 44 44 43 43 43 43 44 45 45 45 45 45 45 45 45 45 45 45 44 44 44 44 44 44 44 44 44 44 44 44 45 45 44 44 45 45 46 47 47 48 49 50
43 43 44 44 44 45 45 44 45 46 46 47 47 47 47 47 47 47 46 46 46 45 45 45 45 45 45 45 45 45 45 45 45 45 45 45 45 46 47 48 48 49 49 50
Wind_Direction
307 300 290 283 278 275 270 275 271 265 262 258 252 248 244 242 244 243 240 239 236 234 234 236 233 233 232 231 232 233 233 235 237 238 240 242 246 249 251 254 257 260 262 263
310 309 303 290 281 275 273 273 273 271 267 262 256 250 244 242 240 240 242 241 239 235 234 236 235 234 233 234 235 235 234 236 238 240 245 248 249 251 253 256 260 261 263 264
317 315 312 299 285 276 275 274 272 271 269 262 258 253 248 245 242 241 239 234 235 235 235 236 236 234 234 235 237 237 236 238 241 244 248 251 251 254 256 259 262 264 264 265
315 313 311 304 292 280 279 281 278 275 272 267 263 256 253 250 246 242 238 238 236 237 238 239 237 234 234 236 238 240 240 241 244 246 249 251 254 257 259 261 264 265 266 266
316 313 312 304 297 287 284 285 284 279 278 275 270 264 258 253 247 247 243 241 241 241 242 242 240 236 236 238 239 241 242 243 244 248 251 254 256 259 261 263 265 266 266 268
313 315 313 306 299 292 287 285 284 282 280 277 275 272 268 262 251 247 247 246 246 243 241 238 238 239 239 240 242 244 245 245 246 250 253 256 259 261 264 265 267 268 269 270
316 316 311 306 300 294 288 288 287 285 284 283 280 277 277 269 258 253 250 247 247 246 242 240 241 242 243 244 245 246 247 248 249 251 254 256 260 262 264 267 269 270 271 272
317 317 312 305 297 295 292 291 290 289 289 287 284 282 280 275 267 260 252 249 250 249 247 246 246 247 248 247 247 247 249 250 252 253 254 257 260 264 265 267 269 270 271 272
320 315 313 305 297 293 291 289 290 289 290 290 288 286 281 278 275 268 261 256 253 251 249 247 248 248 249 250 250 251 253 254 254 255 257 260 262 264 267 269 271 271 272 273
317 314 310 303 298 295 291 289 288 290 291 290 290 291 287 283 284 277 266 261 258 255 252 252 253 252 252 253 253 252 253 255 257 258 260 263 265 267 268 270 272 272 273 274
315 312 309 305 301 297 292 288 288 286 287 289 291 291 291 288 283 280 276 269 263 260 258 257 256 257 258 257 257 257 257 259 260 262 264 266 268 269 271 272 273 273 274 274
309 308 307 305 302 296 293 290 287 285 284 286 288 292 294 289 284 281 277 272 269 265 262 260 259 260 261 260 260 259 260 261 263 265 266 269 270 272 273 274 274 275 275 275
304 303 303 301 298 295 292 291 289 286 281 282 284 290 291 286 281 279 275 271 268 267 265 263 263 263 263 262 261 262 263 264 265 267 269 271 273 274 275 276 276 276 276 276
299 298 298 297 295 292 290 289 289 287 284 283 284 286 284 281 277 275 273 271 270 268 266 264 263 264 264 264 265 265 265 266 268 270 272 273 274 275 277 278 278 278 278 278
295 295 295 293 291 289 288 287 286 287 287 286 285 282 281 279 275 273 273 272 270 269 269 268 267 267 267 268 268 268 268 269 271 272 273 274 275 276 277 278 279 279 279 279
292 292 292 292 290 288 287 286 285 286 287 286 284 282 280 277 275 274 273 271 270 269 269 269 269 270 270 270 270 270 270 271 273 274 274 275 276 277 278 278 279 279 280 280
289 290 290 290 288 287 287 287 284 284 284 283 283 282 279 278 276 275 274 272 271 271 270 270 269 269 270 270 271 271 271 273 274 275 275 275 276 277 278 279 280 280 281 281
286 286 287 288 289 286 290 285 284 284 283 283 282 281 280 279 277 276 275 274 273 273 272 271 271 271 271 271 271 271 272 273 274 274 275 276 277 278 279 280 281 282 282 282
284 285 285 286 286 287 287 286 285 284 283 283 282 281 279 278 277 276 275 274 274 274 273 272 273 273 273 272 272 272 273 274 275 276 276 277 278 279 280 281 282 282 283 283
282 282 282 283 284 285 287 286 285 284 283 283 282 281 280 279 278 277 277 276 275 275 275 274 274 274 275 275 275 275 276 277 277 277 278 278 279 280 281 282 282 283 284 284
279 280 281 282 282 283 285 284 284 282 283 282 281 280 280 280 280 279 278 277 276 276 275 275 276 276 276 276 276 277 277 278 278 278 279 279 280 281 281 282 283 284 284 285
277 279 279 280 280 282 283 282 281 280 280 280 280 280 279 279 279 278 279 278 277 276 276 276 277 278 278 278 278 279 279 279 279 280 280 280 280 280 281 282 283 284 285 286
276 277 278 278 279 279 280 279 279 279 279 279 279 278 278 278 278 277 277 278 277 277 277 278 278 279 279 279 280 279 280 280 280 280 280 280 281 281 282 282 284 285 286 287
274 275 277 277 277 278 278 278 278 278 278 277 278 278 278 278 278 278 278 278 278 278 278 278 278 278 279 280 280 280 280 280 280 280 281 281 281 281 282 283 284 286 287 288
274 276 276 276 277 277 277 277 276 276 277 277 276 277 277 277 277 278 278 278 279 278 278 278 278 278 279 279 280 280 280 280 281 281 281 282 282 282 282 283 285 287 288 289
275 276 276 276 276 276 277 277 276 277 277 277 277 277 277 277 278 277 277 277 277 278 278 278 278 278 279 279 279 279 280 280 281 281 281 282 282 282 283 284 285 287 289 290
Height
5722 5722 5721 5722 5721 5721 5720 5720 5720 5720 5720 5720 5720 5722 5724 5724 5725 5727 5729 5730 5733 5735 5738 5741 5744 5747 5752 5756 5760 5763 5766 5769 5772 5775 5776 5779 5781 5783 5784 5786 5787 5788 5788 5788
5722 5720 5720 5719 5718 5718 5717 5717 5717 5717 5717 5717 5717 5718 5719 5720 5722 5723 5725 5726 5728 5730 5733 5736 5739 5743 5747 5750 5754 5757 5760 5763 5766 5769 5771 5773 5775 5776 5777 5778 5779 5780 5780 5780
5720 5719 5717 5716 5716 5716 5715 5715 5715 5715 5714 5714 5715 5716 5716 5717 5718 5719 5721 5722 5724 5726 5729 5731 5734 5738 5741 5745 5748 5751 5754 5757 5760 5763 5766 5767 5768 5769 5771 5771 5772 5772 5772 5772
5718 5717 5716 5715 5714 5714 5714 5713 5713 5712 5712 5712 5712 5712 5714 5714 5715 5716 5717 5719 5720 5722 5725 5727 5729 5732 5735 5738 5742 5745 5748 5751 5754 5756 5759 5760 5761 5762 5763 5764 5764 5764 5764 5764
5717 5715 5714 5713 5713 5712 5712 5712 5711 5710 5710 5709 5709 5709 5711 5711 5711 5712 5714 5715 5717 5719 5721 5723 5725 5728 5730 5732 5736 5739 5742 5745 5747 5750 5752 5753 5755 5755 5756 5756 5756 5756 5756 5756
5715 5714 5713 5712 5711 5711 5710 5709 5709 5708 5708 5707 5707 5706 5708 5708 5709 5710 5711 5712 5714 5715 5717 5719 5721 5723 5725 5728 5730 5733 5736 5738 5741 5743 5745 5746 5747 5748 5748 5748 5748 5748 5748 5747
5714 5713 5711 5710 5709 5709 5708 5708 5707 5706 5705 5705 5705 5704 5705 5706 5706 5707 5707 5709 5711 5712 5714 5715 5717 5719 5721 5723 5725 5727 5730 5732 5734 5736 5737 5738 5739 5740 5740 5739 5739 5739 5739 5738
5712 5711 5710 5708 5708 5707 5706 5706 5706 5704 5703 5704 5703 5702 5704 5703 5703 5704 5704 5705 5707 5708 5710 5711 5712 5714 5716 5717 5719 5721 5723 5725 5727 5728 5730 5730 5731 5731 5731 5731 5730 5730 5729 5729
5710 5709 5708 5707 5706 5705 5704 5704 5704 5703 5701 5701 5701 5701 5701 5700 5701 5701 5702 5702 5703 5704 5705 5706 5707 5708 5709 5711 5713 5715 5717 5718 5719 5721 5721 5722 5722 5722 5722 5721 5721 5720 5720 5719
5708 5707 5706 5705 5704 5703 5702 5701 5701 5700 5699 5698 5698 5698 5698 5698 5698 5698 5698 5699 5699 5700 5700 5701 5702 5703 5703 5705 5706 5708 5709 5710 5711 5712 5712 5713 5713 5713 5712 5711 5711 5710 5709 5708
5706 5705 5704 5702 5701 5700 5700 5699 5697 5697 5696 5695 5695 5698 5696 5695 5694 5694 5695 5695 5695 5695 5695 5696 5696 5697 5698 5699 5700 5701 5701 5702 5703 5703 5703 5703 5703 5702 5702 5701 5700 5699 5698 5697
5703 5702 5701 5700 5698 5697 5696 5695 5695 5694 5693 5692 5691 5696 5692 5691 5690 5690 5690 5690 5690 5690 5691 5691 5691 5691 5692 5692 5692 5693 5693 5694 5694 5694 5694 5693 5693 5692 5691 5690 5689 5688 5687 5685
5700 5699 5697 5696 5697 5695 5692 5691 5690 5690 5689 5688 5687 5691 5688 5687 5686 5686 5685 5685 5685 5685 5685 5685 5685 5685 5685 5685 5685 5685 5685 5685 5684 5684 5684 5683 5682 5681 5680 5679 5678 5676 5675 5674
5695 5694 5694 5693 5691 5689 5688 5687 5686 5684 5683 5683 5683 5684 5683 5682 5680 5680 5680 5679 5679 5679 5679 5679 5678 5678 5678 5678 5677 5677 5676 5676 5675 5674 5674 5673 5672 5670 5669 5668 5666 5665 5663 5661
5690 5689 5688 5687 5685 5684 5683 5682 5680 5679 5678 5678 5678 5676 5677 5675 5674 5673 5673 5672 5672 5672 5672 5671 5671 5670 5670 5669 5669 5668 5667 5667 5666 5665 5664 5662 5661 5659 5658 5656 5654 5652 5650 5648
5684 5683 5682 5681 5680 5678 5677 5676 5675 5673 5672 5671 5670 5670 5670 5667 5666 5666 5665 5665 5664 5664 5663 5663 5662 5662 5661 5660 5659 5659 5658 5657 5656 5655 5653 5651 5649 5648 5646 5644 5642 5640 5637 5635
5677 5676 5675 5674 5673 5671 5671 5671 5668 5667 5666 5664 5663 5664 5661 5660 5659 5658 5658 5657 5656 5655 5654 5654 5653 5652 5651 5650 5649 5649 5647 5646 5645 5643 5642 5640 5638 5636 5634 5631 5629 5627 5624 5622
5670 5668 5666 5665 5665 5663 5666 5662 5661 5659 5658 5656 5655 5654 5653 5652 5650 5649 5649 5648 5647 5646 5645 5644 5643 5642 5641 5640 5639 5638 5636 5635 5634 5632 5630 5628 5626 5623 5621 5618 5616 5613 5611 5608
5661 5660 5658 5656 5655 5654 5656 5654 5652 5650 5649 5647 5646 5645 5643 5642 5641 5640 5639 5638 5637 5636 5635 5634 5632 5631 5630 5629 5628 5626 5625 5623 5621 5619 5617 5615 5613 5611 5608 5606 5603 5600 5597 5595
5652 5650 5649 5647 5645 5645 5647 5644 5641 5641 5639 5638 5636 5634 5633 5632 5632 5631 5629 5628 5626 5625 5624 5623 5621 5620 5619 5617 5616 5614 5613 5611 5609 5607 5605 5602 5600 5598 5595 5592 5590 5587 5584 5581
5642 5640 5639 5637 5634 5634 5636 5633 5632 5631 5631 5628 5625 5624 5623 5622 5621 5620 5618 5616 5615 5614 5613 5611 5610 5608 5607 5605 5604 5602 5600 5598 5596 5594 5592 5589 5587 5584 5582 5579 5576 5574 5571 5568
5630 5629 5628 5626 5624 5627 5624 5622 5621 5620 5618 5616 5615 5613 5612 5611 5610 5608 5607 5605 5604 5602 5601 5599 5598 5596 5595 5593 5591 5590 5588 5586 5583 5581 5579 5576 5574 5571 5568 5566 5563 5560 5557 5554
5618 5618 5616 5615 5616 5614 5612 5610 5609 5607 5606 5605 5603 5602 5601 5600 5598 5597 5595 5594 5592 5591 5589 5587 5586 5584 5582 5580 5578 5576 5574 5572 5570 5568 5565 5563 5560 5557 5555 5552 5549 5546 5543 5540
5606 5604 5603 5602 5602 5601 5599 5597 5596 5594 5593 5592 5591 5590 5588 5587 5586 5584 5583 5581 5580 5578 5576 5574 5573 5571 5569 5567 5565 5563 5561 5558 5556 5554 5552 5549 5547 5544 5541 5538 5535 5532 5529 5525
5593 5591 5589 5588 5589 5587 5586 5584 5583 5581 5580 5579 5578 5576 5575 5574 5572 5571 5569 5568 5566 5564 5563 5561 5559 5557 5556 5553 5551 5549 5547 5545 5543 5541 5538 5536 5533 5531 5528 5525 5522 5519 5515 5511
5581 5578 5576 5576 5575 5572 5573 5571 5569 5568 5567 5565 5564 5563 5561 5559 5558 5556 5555 5554 5552 5550 5549 5547 5545 5543 5542 5539 5538 5535 5533 5531 5529 5527 5525 5522 5520 5517 5514 5512 5509 5505 5501 5497